TimeCDT,TemperatureF,Dew PointF,Humidity,Sea Level PressureIn,VisibilityMPH,Wind Direction,Wind SpeedMPH,Gust SpeedMPH,PrecipitationIn,Events,Conditions,WindDirDegrees,DateUTC
12:13 AM,64.4,59.0,83,29.98,10.0,SE,5.8,-,N/A,,Mostly Cloudy,140,2013-08-05 05:13:00
12:32 AM,64.4,59.0,83,29.99,10.0,SE,4.6,-,N/A,,Scattered Clouds,140,2013-08-05 05:32:00
12:53 AM,66.2,59.0,78,29.99,10.0,SE,6.9,-,N/A,Thunderstorm,Mostly Cloudy,130,2013-08-05 05:53:00
1:13 AM,64.4,60.8,88,30.00,10.0,NNE,3.5,-,N/A,Rain-Thunderstorm,Light Thunderstorms and Rain,20,2013-08-05 06:13:00
1:32 AM,62.6,62.6,100,30.04,3.0,West,4.6,-,N/A,Rain-Thunderstorm,Heavy Thunderstorms and Rain,280,2013-08-05 06:32:00
1:53 AM,62.6,62.6,100,30.04,2.0,Calm,Calm,-,N/A,Rain-Thunderstorm,Thunderstorms and Rain,0,2013-08-05 06:53:00
2:13 AM,62.6,62.6,100,30.02,3.0,ESE,3.5,-,N/A,Rain-Thunderstorm,Thunderstorms and Rain,120,2013-08-05 07:13:00
2:32 AM,62.6,62.6,100,29.93,4.0,SE,15.0,-,N/A,Rain-Thunderstorm,Rain,140,2013-08-05 07:32:00
2:53 AM,62.6,62.6,100,29.97,10.0,SSW,3.5,-,N/A,,Light Drizzle,210,2013-08-05 07:53:00
3:13 AM,62.6,62.6,100,29.96,10.0,Calm,Calm,-,N/A,,Overcast,0,2013-08-05 08:13:00
3:33 AM,62.6,62.6,100,29.95,10.0,SSE,3.5,-,N/A,,Overcast,160,2013-08-05 08:33:00
3:50 AM,62.6,62.6,100,29.96,2.5,SSE,3.5,-,N/A,Rain,Heavy Rain,160,2013-08-05 08:50:00
4:13 AM,62.6,62.6,100,29.95,5.0,SSE,5.8,-,N/A,Rain,Light Rain,160,2013-08-05 09:13:00
4:32 AM,62.6,62.6,100,29.94,2.5,South,3.5,-,N/A,Rain-Thunderstorm,Rain,190,2013-08-05 09:32:00
4:53 AM,62.6,62.6,100,29.93,10.0,South,3.5,-,N/A,Rain,Light Rain,170,2013-08-05 09:53:00
5:12 AM,62.6,62.6,100,29.93,4.0,SSE,3.5,-,N/A,Rain,Heavy Rain,150,2013-08-05 10:12:00
5:33 AM,62.6,62.6,100,29.92,10.0,SSE,3.5,-,N/A,Rain,Light Rain,150,2013-08-05 10:33:00
5:53 AM,62.6,62.6,100,29.92,10.0,South,3.5,-,N/A,Rain,Light Rain,170,2013-08-05 10:53:00
6:12 AM,62.6,62.6,100,29.93,10.0,Calm,Calm,-,N/A,,Light Drizzle,0,2013-08-05 11:12:00
6:32 AM,62.6,62.6,100,29.93,4.0,Calm,Calm,-,N/A,Rain,Heavy Rain,0,2013-08-05 11:32:00
6:53 AM,62.6,62.6,100,29.92,10.0,SSE,4.6,-,N/A,,Overcast,160,2013-08-05 11:53:00
7:13 AM,62.6,62.6,100,29.92,10.0,Calm,Calm,-,N/A,,Overcast,0,2013-08-05 12:13:00
7:33 AM,62.6,62.6,100,29.91,10.0,SSE,3.5,-,N/A,,Overcast,160,2013-08-05 12:33:00
7:52 AM,64.4,64.4,100,29.91,10.0,Calm,Calm,-,N/A,,Overcast,0,2013-08-05 12:52:00
8:12 AM,64.4,64.4,100,29.91,10.0,South,3.5,-,N/A,,Overcast,170,2013-08-05 13:12:00
8:33 AM,64.4,64.4,100,29.91,10.0,Calm,Calm,-,N/A,,Overcast,0,2013-08-05 13:33:00
8:52 AM,64.4,64.4,100,29.91,10.0,SSE,3.5,-,N/A,,Overcast,160,2013-08-05 13:52:00
9:12 AM,66.2,66.2,100,29.90,10.0,South,4.6,-,N/A,,Scattered Clouds,190,2013-08-05 14:12:00
9:33 AM,68.0,66.2,94,29.90,10.0,Calm,Calm,-,N/A,,Scattered Clouds,0,2013-08-05 14:33:00
9:52 AM,69.8,66.2,88,29.90,10.0,South,4.6,-,N/A,,Scattered Clouds,190,2013-08-05 14:52:00
10:12 AM,69.8,66.2,88,29.89,10.0,WSW,3.5,-,N/A,,Scattered Clouds,240,2013-08-05 15:12:00
10:33 AM,69.8,66.2,88,29.88,10.0,WSW,3.5,-,N/A,,Scattered Clouds,240,2013-08-05 15:33:00
10:52 AM,69.8,66.2,88,29.88,10.0,SW,3.5,-,N/A,,Mostly Cloudy,230,2013-08-05 15:52:00
11:12 AM,71.6,66.2,83,29.88,10.0,WSW,3.5,-,N/A,,Scattered Clouds,250,2013-08-05 16:12:00
11:33 AM,71.6,66.2,83,29.88,10.0,West,3.5,-,N/A,,Mostly Cloudy,270,2013-08-05 16:33:00
11:53 AM,73.4,68.0,83,29.88,10.0,West,4.6,-,N/A,,Overcast,270,2013-08-05 16:53:00
12:12 PM,73.4,66.2,78,29.87,10.0,WNW,3.5,-,N/A,,Mostly Cloudy,290,2013-08-05 17:12:00
12:33 PM,75.2,66.2,73,29.87,10.0,West,4.6,-,N/A,,Scattered Clouds,280,2013-08-05 17:33:00
12:53 PM,73.4,66.2,78,29.87,10.0,WSW,3.5,-,N/A,,Scattered Clouds,250,2013-08-05 17:53:00
1:12 PM,77.0,68.0,74,29.87,10.0,WNW,4.6,-,N/A,,Scattered Clouds,290,2013-08-05 18:12:00
1:33 PM,77.0,66.2,69,29.87,10.0,WNW,5.8,-,N/A,,Scattered Clouds,290,2013-08-05 18:33:00
1:53 PM,78.8,66.2,65,29.87,10.0,NW,8.1,-,N/A,,Scattered Clouds,320,2013-08-05 18:53:00
2:12 PM,78.8,66.2,65,29.86,10.0,WNW,6.9,-,N/A,,Scattered Clouds,300,2013-08-05 19:12:00
2:33 PM,78.8,64.4,61,29.86,10.0,WNW,6.9,-,N/A,,Clear,290,2013-08-05 19:33:00
2:53 PM,80.6,64.4,58,29.86,10.0,West,6.9,-,N/A,,Clear,280,2013-08-05 19:53:00
3:12 PM,80.6,66.2,61,29.86,10.0,West,6.9,-,N/A,,Clear,260,2013-08-05 20:12:00
3:33 PM,80.6,66.2,61,29.85,10.0,West,5.8,-,N/A,,Clear,270,2013-08-05 20:33:00
3:52 PM,80.6,66.2,61,29.85,10.0,West,9.2,-,N/A,,Clear,270,2013-08-05 20:52:00
4:13 PM,78.8,64.4,61,29.85,10.0,WNW,8.1,-,N/A,,Scattered Clouds,290,2013-08-05 21:13:00
4:32 PM,80.6,64.4,58,29.85,10.0,WNW,9.2,-,N/A,,Mostly Cloudy,290,2013-08-05 21:32:00
4:52 PM,80.6,64.4,58,29.84,10.0,West,8.1,-,N/A,,Scattered Clouds,270,2013-08-05 21:52:00
5:12 PM,80.6,64.4,58,29.84,10.0,West,8.1,-,N/A,,Scattered Clouds,270,2013-08-05 22:12:00
5:32 PM,80.6,64.4,58,29.84,10.0,West,9.2,-,N/A,,Clear,280,2013-08-05 22:32:00
5:53 PM,78.8,64.4,61,29.84,10.0,NW,10.4,16.1,N/A,,Scattered Clouds,310,2013-08-05 22:53:00
6:12 PM,78.8,66.2,65,29.84,10.0,WNW,10.4,16.1,N/A,,Clear,300,2013-08-05 23:12:00
6:32 PM,78.8,66.2,65,29.84,10.0,WNW,13.8,18.4,N/A,,Clear,290,2013-08-05 23:32:00
6:52 PM,75.2,64.4,69,29.84,10.0,WNW,9.2,17.3,N/A,,Clear,300,2013-08-05 23:52:00
7:13 PM,75.2,62.6,65,29.83,10.0,WNW,11.5,17.3,N/A,,Clear,300,2013-08-06 00:13:00
7:33 PM,73.4,62.6,69,29.83,10.0,WNW,9.2,16.1,N/A,,Clear,300,2013-08-06 00:33:00
7:52 PM,73.4,62.6,69,29.84,10.0,WNW,11.5,-,N/A,,Clear,300,2013-08-06 00:52:00
8:13 PM,71.6,62.6,73,29.83,10.0,NW,6.9,-,N/A,,Clear,310,2013-08-06 01:13:00
8:33 PM,69.8,62.6,78,29.84,10.0,NW,8.1,-,N/A,,Clear,310,2013-08-06 01:33:00
8:52 PM,69.8,62.6,78,29.84,10.0,NW,6.9,-,N/A,,Clear,310,2013-08-06 01:52:00
9:13 PM,69.8,62.6,78,29.85,10.0,WNW,5.8,-,N/A,,Scattered Clouds,300,2013-08-06 02:13:00
9:33 PM,68.0,62.6,83,29.86,10.0,WNW,4.6,-,N/A,,Clear,300,2013-08-06 02:33:00
9:52 PM,66.2,62.6,88,29.86,10.0,NW,3.5,-,N/A,,Clear,310,2013-08-06 02:52:00
10:13 PM,64.4,62.6,94,29.87,10.0,NNW,5.8,-,N/A,,Clear,330,2013-08-06 03:13:00
10:33 PM,64.4,62.6,94,29.87,10.0,NNW,5.8,-,N/A,,Clear,340,2013-08-06 03:33:00
10:52 PM,64.4,62.6,94,29.87,10.0,North,4.6,-,N/A,,Clear,350,2013-08-06 03:52:00
11:13 PM,64.4,62.6,94,29.88,10.0,NNW,3.5,-,N/A,,Clear,340,2013-08-06 04:13:00
11:33 PM,64.4,62.6,94,29.88,10.0,WNW,3.5,-,N/A,,Clear,300,2013-08-06 04:33:00
11:52 PM,64.4,60.8,88,29.88,10.0,NW,4.6,-,N/A,,Clear,310,2013-08-06 04:52:00